TimeCDT,TemperatureF,Dew PointF,Humidity,Sea Level PressureIn,VisibilityMPH,Wind Direction,Wind SpeedMPH,Gust SpeedMPH,PrecipitationIn,Events,Conditions,WindDirDegrees,DateUTC
12:53 AM,75.9,71.1,85,29.92,10.0,Calm,Calm,-,N/A,,Clear,0,2013-06-14 05:53:00
1:53 AM,77.0,70.0,79,29.91,10.0,Calm,Calm,-,N/A,,Clear,0,2013-06-14 06:53:00
2:53 AM,77.0,70.0,79,29.91,10.0,Calm,Calm,-,N/A,,Clear,0,2013-06-14 07:53:00
3:53 AM,75.9,69.1,79,29.90,10.0,Calm,Calm,-,N/A,,Clear,0,2013-06-14 08:53:00
4:53 AM,75.0,69.1,82,29.92,10.0,Calm,Calm,-,N/A,,Clear,0,2013-06-14 09:53:00
5:53 AM,73.9,69.1,85,29.93,10.0,Calm,Calm,-,N/A,,Clear,0,2013-06-14 10:53:00
6:53 AM,73.9,70.0,87,29.95,10.0,Calm,Calm,-,N/A,,Clear,0,2013-06-14 11:53:00
7:53 AM,80.1,71.1,74,29.96,10.0,SSW,3.5,-,N/A,,Partly Cloudy,210,2013-06-14 12:53:00
8:53 AM,84.0,72.0,67,29.96,10.0,NW,4.6,-,N/A,,Partly Cloudy,310,2013-06-14 13:53:00
9:53 AM,87.1,71.1,59,29.96,10.0,NW,5.8,-,N/A,,Clear,320,2013-06-14 14:53:00
10:53 AM,91.0,73.0,55,29.95,10.0,WNW,6.9,-,N/A,,Clear,300,2013-06-14 15:53:00
11:53 AM,91.9,72.0,52,29.94,10.0,Variable,4.6,-,N/A,,Partly Cloudy,0,2013-06-14 16:53:00
12:53 PM,91.9,72.0,52,29.94,10.0,NNE,4.6,-,N/A,,Scattered Clouds,30,2013-06-14 17:53:00
1:53 PM,96.1,72.0,46,29.93,10.0,Variable,5.8,-,N/A,,Scattered Clouds,0,2013-06-14 18:53:00
2:53 PM,93.9,73.0,51,29.91,10.0,Calm,Calm,-,N/A,,Scattered Clouds,0,2013-06-14 19:53:00
3:53 PM,96.1,71.1,44,29.90,10.0,Variable,3.5,-,N/A,,Scattered Clouds,0,2013-06-14 20:53:00
4:53 PM,97.0,71.1,43,29.88,10.0,North,4.6,-,N/A,,Scattered Clouds,360,2013-06-14 21:53:00
5:53 PM,96.1,72.0,46,29.87,10.0,ENE,4.6,-,N/A,,Clear,60,2013-06-14 22:53:00
6:53 PM,93.9,73.0,51,29.86,10.0,ENE,5.8,-,N/A,,Clear,70,2013-06-14 23:53:00
7:53 PM,90.0,75.0,61,29.87,10.0,East,6.9,-,N/A,,Mostly Cloudy,80,2013-06-15 00:53:00
8:53 PM,88.0,75.0,65,29.89,10.0,East,5.8,-,N/A,,Mostly Cloudy,100,2013-06-15 01:53:00
9:53 PM,87.1,75.0,67,29.91,10.0,East,5.8,-,N/A,,Mostly Cloudy,90,2013-06-15 02:53:00
10:53 PM,84.9,75.0,72,29.92,10.0,East,5.8,-,N/A,,Clear,90,2013-06-15 03:53:00
11:53 PM,84.9,73.9,69,29.95,10.0,ESE,10.4,-,N/A,,Overcast,110,2013-06-15 04:53:00